SES-14

Last updated on Tue Sep 22 2026 00:03:14 GMT+0000 (Coordinated Universal Time)

1 43175U 18012B 26264.33714333 -.00000282 00000+0 00000+0 0 9990 2 43175 0.0265 50.2979 0000947 98.9885 284.8235 1.00266959 7988
UTC large
Height (km)
Speed (km/s)
/
Latitude / Longitude
Inclination (degrees)
Orbital Period (minutes)
Azimuth
Elevation
Range (km)
Doppler Factor

Next 0 passes for location: London (51.5072 / 0.1276)

No passes found over London.
SES-14